Change the Weather History Date:

Friday, December 16, 2011

  Actual Average Record
Temperature  
Mean Temperature 17 °F -  
Max Temperature 24 °F 24 °F 46 °F (2006)
Min Temperature 10 °F 8 °F -18 °F (2008)
Degree Days  
Heating Degree Days 48    
Moisture  
Dew Point 16 °F    
Average Humidity 90    
Maximum Humidity 100    
Minimum Humidity 80    
Precipitation  
Precipitation 0.00 in - - ()
Sea Level Pressure  
Sea Level Pressure 30.34 in    
Wind  
Wind Speed 2 mph (East)    
Max Wind Speed 8 mph    
Max Gust Speed -    
Visibility 10 miles    
Events Snow    
Averages and records for this station are not official NWS values.
T = Trace of Precipitation, MM = Missing Value Source: NWS Daily Summary

Daily Weather History Graph

Daily Weather History Graph

Search for Another Location

Airport or City:

Trip Planner

Search our weather history database for the weather conditions in past years. The results will help you decide how hot, cold, wet, or windy it might be!

Date:

Astronomy

Dec. 16, 2011 Rise Set
Actual Time 7:56 AM CST 4:42 PM CST
Civil Twilight 7:22 AM CST 5:16 PM CST
Nautical Twilight 6:45 AM CST 5:53 PM CST
Astronomical Twilight 6:09 AM CST 6:29 PM CST
Moon 11:33 PM CST (12/16) 11:28 AM CST (12/16)
Length of Visible Light 9h 53m
Length of Day
8h 45m
Waning Gibbous, 64% of the Moon is Illuminated
Dec 16
Waning Gibbous
Dec 17
Last Quarter
Dec 24
New
Jan 1
First Quarter
Jan 9
Full

Hourly Weather History & Observations

Time (CST) Temp. Windchill Dew Point Humidity Pressure Visibility Wind Dir Wind Speed Gust Speed Precip Events Conditions
12:15 AM 10.4 °F - 8.6 °F 92% 30.38 in 10.0 mi Calm Calm - N/A   Clear
12:35 AM 12.2 °F - 10.4 °F 92% 30.38 in 10.0 mi Calm Calm - N/A   Clear
12:55 AM 12.2 °F - 10.4 °F 92% 30.38 in 10.0 mi Calm Calm - N/A   Clear
1:14 AM 10.4 °F - 10.4 °F 100% 30.39 in 10.0 mi Calm Calm - N/A   Clear
1:35 AM 12.2 °F 6.1 °F 10.4 °F 92% 30.39 in 10.0 mi WSW 3.5 mph - N/A   Clear
1:55 AM 12.2 °F - 10.4 °F 92% 30.39 in 10.0 mi Calm Calm - N/A   Clear
2:15 AM 12.2 °F - 10.4 °F 92% 30.39 in 10.0 mi Calm Calm - N/A   Clear
2:35 AM 12.2 °F - 10.4 °F 92% 30.38 in 10.0 mi Calm Calm - N/A   Clear
3:15 AM 10.4 °F - 8.6 °F 92% 30.39 in 10.0 mi Calm Calm - N/A   Clear
3:35 AM 12.2 °F 6.1 °F 10.4 °F 92% 30.39 in 10.0 mi WNW 3.5 mph - N/A   Clear
4:15 AM 12.2 °F - 10.4 °F 92% 30.38 in 10.0 mi Calm Calm - N/A   Clear
4:35 AM 12.2 °F - 10.4 °F 92% 30.37 in 10.0 mi Calm Calm - N/A   Scattered Clouds
5:15 AM 12.2 °F - 10.4 °F 92% 30.35 in 10.0 mi Calm Calm - N/A   Clear
5:35 AM 12.2 °F - 10.4 °F 92% 30.35 in 10.0 mi Calm Calm - N/A   Clear
5:55 AM 12.2 °F - 10.4 °F 92% 30.35 in 10.0 mi Calm Calm - N/A   Clear
6:15 AM 14.0 °F - 10.4 °F 86% 30.35 in 10.0 mi Calm Calm - N/A   Mostly Cloudy
6:35 AM 12.2 °F - 10.4 °F 92% 30.36 in 10.0 mi Calm Calm - N/A   Overcast
6:55 AM 14.0 °F - 12.2 °F 93% 30.36 in 10.0 mi Calm Calm - N/A   Overcast
7:15 AM 15.8 °F - 12.2 °F 86% 30.36 in 10.0 mi Calm Calm - N/A   Overcast
7:35 AM 15.8 °F - 12.2 °F 86% 30.37 in 10.0 mi Calm Calm - N/A   Overcast
7:54 AM 15.8 °F - 12.2 °F 86% 30.36 in 10.0 mi Calm Calm - N/A   Overcast
8:15 AM 15.8 °F - 12.2 °F 86% 30.36 in 10.0 mi Calm Calm - N/A   Overcast
8:54 AM 17.6 °F - 14.0 °F 86% 30.37 in 10.0 mi Calm Calm - N/A   Scattered Clouds
9:14 AM 17.6 °F - 14.0 °F 86% 30.37 in 10.0 mi Calm Calm - N/A   Scattered Clouds
9:35 AM 17.6 °F - 15.8 °F 93% 30.38 in 10.0 mi Calm Calm - N/A   Scattered Clouds
10:15 AM 19.4 °F 14.3 °F 15.8 °F 86% 30.39 in 2.5 mi East 3.5 mph - N/A Snow Light Snow
10:34 AM 19.4 °F 14.3 °F 17.6 °F 93% 30.40 in 4.0 mi East 3.5 mph - N/A Snow Light Snow
10:55 AM 19.4 °F 12.8 °F 17.6 °F 93% 30.40 in 10.0 mi ENE 4.6 mph - N/A Snow Light Snow
11:15 AM 19.4 °F 11.5 °F 17.6 °F 93% 30.39 in 7.0 mi ENE 5.8 mph - N/A Snow Light Snow
11:35 AM 21.2 °F 13.6 °F 17.6 °F 86% 30.38 in 7.0 mi ENE 5.8 mph - N/A Snow Light Snow
11:55 AM 21.2 °F 11.7 °F 19.4 °F 93% 30.37 in 7.0 mi East 8.1 mph - N/A Snow Light Snow
12:15 PM 21.2 °F 11.7 °F 19.4 °F 93% 30.37 in 7.0 mi East 8.1 mph - N/A Snow Light Snow
12:35 PM 21.2 °F 12.6 °F 19.4 °F 93% 30.36 in 10.0 mi East 6.9 mph - N/A   Overcast
12:54 PM 23.0 °F 13.9 °F 19.4 °F 86% 30.35 in 10.0 mi East 8.1 mph - N/A   Overcast
1:15 PM 23.0 °F 14.7 °F 19.4 °F 86% 30.33 in 10.0 mi East 6.9 mph - N/A   Overcast
2:15 PM 24.8 °F 16.9 °F 19.4 °F 80% 30.30 in 10.0 mi East 6.9 mph - N/A   Mostly Cloudy
2:35 PM 24.8 °F 16.1 °F 19.4 °F 80% 30.30 in 10.0 mi East 8.1 mph - N/A   Mostly Cloudy
2:55 PM 24.8 °F 16.9 °F 19.4 °F 80% 30.30 in 10.0 mi East 6.9 mph - N/A   Overcast
3:35 PM 23.0 °F 14.7 °F 19.4 °F 86% 30.30 in 10.0 mi East 6.9 mph - N/A   Scattered Clouds
3:55 PM 23.0 °F 15.8 °F 19.4 °F 86% 30.31 in 10.0 mi East 5.8 mph - N/A   Mostly Cloudy
4:35 PM 23.0 °F 15.8 °F 19.4 °F 86% 30.31 in 10.0 mi East 5.8 mph - N/A   Overcast
4:55 PM 23.0 °F 17.0 °F 19.4 °F 86% 30.31 in 10.0 mi East 4.6 mph - N/A   Overcast
5:15 PM 23.0 °F 18.4 °F 19.4 °F 86% 30.32 in 10.0 mi East 3.5 mph - N/A   Overcast
5:35 PM 23.0 °F 17.0 °F 21.2 °F 93% 30.32 in 10.0 mi East 4.6 mph - N/A   Overcast
6:15 PM 23.0 °F 18.4 °F 21.2 °F 93% 30.32 in 10.0 mi East 3.5 mph - N/A   Overcast
6:35 PM 23.0 °F 17.0 °F 21.2 °F 93% 30.32 in 10.0 mi East 4.6 mph - N/A   Overcast
7:15 PM 23.0 °F - 21.2 °F 93% 30.31 in 10.0 mi Calm Calm - N/A   Overcast
7:35 PM 23.0 °F - 21.2 °F 93% 30.31 in 10.0 mi Calm Calm - N/A   Overcast
7:55 PM 23.0 °F - 21.2 °F 93% 30.31 in 10.0 mi Calm Calm - N/A   Overcast
8:15 PM 23.0 °F - 21.2 °F 93% 30.31 in 10.0 mi Calm Calm - N/A   Overcast
8:35 PM 23.0 °F - 21.2 °F 93% 30.31 in 10.0 mi Calm Calm - N/A   Overcast
8:55 PM 23.0 °F - 21.2 °F 93% 30.30 in 10.0 mi Calm Calm - N/A   Overcast
9:15 PM 23.0 °F - 21.2 °F 93% 30.30 in 10.0 mi Calm Calm - N/A   Overcast
9:35 PM 23.0 °F - 21.2 °F 93% 30.30 in 10.0 mi Calm Calm - N/A   Overcast
9:55 PM 23.0 °F - 21.2 °F 93% 30.29 in 10.0 mi Calm Calm - N/A   Overcast
10:15 PM 23.0 °F - 21.2 °F 93% 30.29 in 10.0 mi Calm Calm - N/A   Overcast
10:35 PM 23.0 °F - 21.2 °F 93% 30.28 in 10.0 mi Calm Calm - N/A   Overcast
10:55 PM 23.0 °F - 21.2 °F 93% 30.28 in 10.0 mi Calm Calm - N/A   Overcast
11:15 PM 23.0 °F - 21.2 °F 93% 30.28 in 10.0 mi Calm Calm - N/A   Overcast
11:35 PM 23.0 °F - 21.2 °F 93% 30.28 in 10.0 mi Calm Calm - N/A   Overcast
11:55 PM 23.0 °F - 21.2 °F 93% 30.28 in 10.0 mi Calm Calm - N/A   Overcast